View from above orbital plane
|
View from above satellite
|
Ground track
|
The orbit data is extracted from the following two-line orbital elements,
1 23404U 94077A 21059.06472442 -.00000323 00000-0 -14621-3 0 9993
2 23404 71.0163 342.9700 0018395 257.5971 102.3093 14.13537210355109
Epoch (UTC): | 28 February 2021 01:33:12 |
Eccentricity: | 0.0018395 |
inclination: | 71.0163° |
perigee height: | 834 km |
apogee height: | 860 km |
right ascension of ascending node: | 342.9700° |
argument of perigee: | 257.5971° |
revolutions per day: | 14.13537210 |
mean anomaly at epoch: | 102.3093° |
orbit number at epoch: | 35510 |
The dashed part of the orbit path shows where the satellite is in the earth's shadow,
|
|